DW6162 Weather Reports


time (UTC)temp
F
wind
direction
speed
knots
gust
knots
rain 1hr
in
rain 24hr
in
rain mn
in
humidity
%
barometer
mb
20260902091644 66 0 0.0 0.0 0.00 0.00 0.00 98 1019.2
20260902091503 66 101 0.0 0.0 0.00 0.00 0.00 98 1015.9
20260902090743 66 0 0.0 0.0 0.00 0.00 0.00 98 1019.3
20260902090120 66 101 0.0 0.0 0.00 0.00 0.00 98 1016.0
20260902085844 67 0 0.0 0.0 0.00 0.00 0.00 98 1019.3
20260902084503 66 101 0.0 0.0 0.00 0.00 0.00 98 1016.2
20260902084043 66 0 0.0 0.0 0.00 0.00 0.00 98 1019.5
20260902083143 66 0 0.0 0.0 0.00 0.00 0.00 98 1019.4
20260902083106 66 102 0.0 0.9 0.00 0.00 0.00 98 1016.2
20260902082243 66 105 0.0 0.9 0.00 0.00 0.00 98 1019.3
20260902081503 66 144 0.0 0.9 0.00 0.00 0.00 98 1016.0
20260902081343 66 143 0.0 0.9 0.00 0.00 0.00 98 1019.2
20260902080443 66 143 0.0 0.9 0.00 0.00 0.00 98 1019.3
20260902075543 67 155 0.0 2.6 0.00 0.00 0.00 98 1019.3
20260902074643 67 156 0.0 0.9 0.00 0.00 0.00 98 1019.4
20260902074502 66 156 0.0 0.9 0.00 0.00 0.00 98 1016.1
20260902073104 66 162 0.0 1.7 0.00 0.00 0.00 98 1016.2
20260902071943 66 0 0.0 0.0 0.00 0.00 0.00 98 1019.4
20260902071502 66 211 0.0 0.0 0.00 0.00 0.00 98 1016.2
20260902071043 66 0 0.0 0.0 0.00 0.00 0.00 98 1019.4
20260902070143 66 0 0.0 0.0 0.00 0.00 0.00 98 1019.4
20260902064502 65 215 0.0 0.9 0.00 0.00 0.00 98 1016.4
20260902064343 66 216 0.0 0.9 0.00 0.00 0.00 97 1019.7
20260902063443 66 215 0.0 0.9 0.00 0.00 0.00 97 1019.7
20260902063102 66 215 0.0 0.0 0.00 0.00 0.00 97 1016.4
20260902062544 66 0 0.0 0.0 0.00 0.00 0.00 97 1019.6
20260902061643 66 216 0.9 1.7 0.00 0.00 0.00 97 1019.5
20260902061507 66 215 0.0 0.9 0.00 0.00 0.00 97 1016.3
20260902060743 66 216 0.0 0.9 0.00 0.00 0.00 98 1019.6
20260902060107 66 216 0.0 0.9 0.00 0.00 0.00 98 1016.3
20260902054943 66 0 0.0 0.0 0.00 0.00 0.00 98 1019.8
20260902054501 66 215 0.0 0.9 0.00 0.00 0.00 98 1016.5
20260902054043 66 216 0.0 0.9 0.00 0.00 0.00 98 1019.8
20260902053143 66 215 0.0 0.9 0.00 0.00 0.00 98 1019.9
20260902053108 65 216 0.0 0.9 0.00 0.00 0.00 98 1016.6
20260902052243 66 0 0.0 0.0 0.00 0.00 0.00 98 1019.8
20260902051502 66 215 0.0 0.0 0.00 0.00 0.00 98 1016.5
20260902051343 66 0 0.0 0.0 0.00 0.00 0.00 98 1019.7
20260902050443 66 0 0.0 0.0 0.00 0.00 0.00 98 1019.7
20260902050105 65 215 0.0 0.9 0.00 0.00 0.00 98 1016.5
20260902045543 66 216 0.0 0.9 0.00 0.00 0.00 98 1019.7
20260902044503 65 215 0.9 1.7 0.00 0.00 0.00 98 1016.5
20260902043743 66 216 0.9 1.7 0.00 0.00 0.00 98 1019.7
20260902043005 65 215 0.0 1.7 0.00 0.00 0.00 97 1016.3
20260902042843 66 207 0.9 1.7 0.00 0.00 0.00 97 1019.6
20260902041943 66 161 0.0 0.9 0.00 0.00 0.00 97 1019.3
20260902041603 66 162 0.0 0.9 0.00 0.00 0.00 96 1016.0
20260902041043 66 162 0.0 0.9 0.00 0.00 0.00 96 1019.3
20260902040143 67 162 0.0 0.9 0.00 0.00 0.00 95 1019.0
20260902040002 67 162 0.0 0.9 0.00 0.00 0.00 95 1015.7
20260902035243 67 0 0.0 0.0 0.00 0.00 0.00 96 1018.9
20260902034605 67 162 0.0 0.0 0.00 0.00 0.00 95 1015.4
20260902034343 67 0 0.0 0.0 0.00 0.00 0.00 96 1018.7
20260902033443 67 0 0.0 0.0 0.00 0.00 0.00 95 1018.8
20260902033005 67 162 0.0 0.0 0.00 0.00 0.00 95 1015.4
20260902031643 68 0 0.0 0.0 0.00 0.00 0.00 95 1018.5
20260902031602 68 162 0.0 0.0 0.00 0.00 0.00 95 1015.2
20260902030743 68 0 0.0 0.0 0.00 0.00 0.00 94 1018.5
20260902030002 68 162 0.0 0.0 0.00 0.00 0.00 93 1015.2
20260902025843 68 0 0.0 0.0 0.00 0.00 0.00 93 1018.5
20260902024943 68 0 0.0 0.0 0.00 0.00 0.00 93 1018.5
20260902024605 68 162 0.0 0.0 0.00 0.00 0.00 93 1015.2
20260902024043 69 158 0.0 1.7 0.00 0.00 0.00 93 1018.4
20260902023143 68 134 0.0 1.7 0.00 0.00 0.00 93 1018.5
20260902023111 68 134 0.0 0.9 0.00 0.00 0.00 93 1015.2
20260902022244 68 123 0.0 0.9 0.00 0.00 0.00 93 1018.6
20260902021502 68 124 0.0 0.0 0.00 0.00 0.00 93 1015.4
20260902021343 69 0 0.0 0.0 0.00 0.00 0.00 92 1018.8
20260902020443 69 0 0.0 0.0 0.00 0.00 0.00 92 1018.8
20260902020104 69 124 0.0 0.0 0.00 0.00 0.00 91 1015.4
20260902015543 70 124 0.0 0.9 0.00 0.00 0.00 91 1018.7
20260902014643 70 133 0.0 0.9 0.00 0.00 0.00 90 1019.0
20260902014505 70 146 0.0 0.9 0.00 0.00 0.00 90 1015.6
20260902013743 70 85 0.9 4.3 0.00 0.00 0.00 90 1019.1
20260902013107 70 82 0.9 2.6 0.00 0.00 0.00 91 1015.9
20260902012843 71 184 0.0 3.5 0.00 0.00 0.00 92 1019.3
20260902011943 71 197 0.9 1.7 0.00 0.00 0.00 92 1018.9
20260902011505 70 193 0.0 1.7 0.00 0.00 0.00 91 1015.4
20260902011043 71 341 0.0 0.9 0.00 0.00 0.00 92 1018.9
20260902010112 70 342 0.0 0.9 0.00 0.00 0.00 92 1014.8
20260902005243 70 341 0.0 0.9 0.00 0.00 0.00 92 1018.2
20260902004502 70 341 0.0 0.0 0.00 0.00 0.00 91 1014.7
20260902004343 70 0 0.0 0.0 0.00 0.00 0.00 91 1018.0
20260902003443 70 342 0.0 0.9 0.00 0.00 0.00 90 1018.0
20260902003103 70 342 0.0 0.9 0.00 0.00 0.00 90 1014.7
20260902002543 71 342 0.0 0.9 0.00 0.00 0.00 90 1018.2
20260902001502 71 341 0.0 0.9 0.00 0.00 0.00 89 1014.5
20260902000743 72 338 0.9 2.6 0.00 0.00 0.00 88 1017.9
20260902000106 72 342 0.9 2.6 0.00 0.00 0.00 87 1014.2
20260901234943 72 327 2.6 5.2 0.00 0.00 0.00 86 1017.4
20260901234503 72 330 1.7 5.2 0.00 0.00 0.00 85 1013.8
20260901234043 73 330 1.7 5.2 0.00 0.00 0.00 85 1017.2
20260901233143 73 325 1.7 2.6 0.00 0.00 0.00 85 1017.2
20260901233102 73 333 0.9 3.5 0.00 0.00 0.00 85 1013.6
20260901231504 73 323 2.6 4.3 0.00 0.00 0.00 84 1013.2
20260901231343 74 322 2.6 4.3 0.00 0.00 0.00 84 1016.9
20260901230443 74 331 2.6 5.2 0.00 0.00 0.00 83 1017.1
20260901225543 75 345 1.7 4.3 0.00 0.00 0.00 80 1017.4
20260901224643 76 349 1.7 2.6 0.00 0.00 0.00 79 1017.3
20260901224503 76 333 0.9 2.6 0.00 0.00 0.00 79 1013.8
20260901223743 77 342 1.7 2.6 0.00 0.00 0.00 78 1017.5
20260901223103 78 312 0.9 2.6 0.00 0.00 0.00 78 1013.9
20260901222843 78 28 0.0 1.7 0.00 0.00 0.00 78 1017.3
20260901221943 79 8 1.7 3.5 0.00 0.00 0.00 78 1017.3
20260901221502 79 19 0.9 2.6 0.00 0.00 0.00 78 1013.9
20260901220143 81 355 3.5 8.7 0.00 0.00 0.00 74 1017.5
20260901220117 81 324 2.6 7.8 0.00 0.00 0.00 74 1013.9
20260901214503 82 93 1.7 7.0 0.00 0.00 0.00 73 1013.4
20260901214343 83 35 1.7 7.0 0.00 0.00 0.00 73 1016.8
20260901213443 84 15 2.6 7.0 0.00 0.00 0.00 71 1016.8
20260901213107 84 19 0.9 6.1 0.00 0.00 0.00 71 1013.3
20260901212543 84 15 1.7 7.0 0.00 0.00 0.00 71 1016.8
20260901211643 84 16 1.7 4.3 0.00 0.00 0.00 71 1016.7
20260901211502 84 72 1.7 4.3 0.00 0.00 0.00 70 1013.2
20260901210743 85 19 2.6 5.2 0.00 0.00 0.00 70 1016.9
20260901205843 85 1 2.6 6.1 0.00 0.00 0.00 71 1016.7
20260901204943 84 7 2.6 5.2 0.00 0.00 0.00 72 1016.9
20260901204505 84 25 1.7 6.1 0.00 0.00 0.00 70 1013.3
20260901204043 84 13 2.6 7.0 0.00 0.00 0.00 69 1016.9
20260901203143 83 9 2.6 4.3 0.00 0.00 0.00 72 1017.0
20260901203102 83 336 1.7 4.3 0.00 0.00 0.00 71 1013.5
20260901202243 83 13 1.7 5.2 0.00 0.00 0.00 72 1017.1
20260901201502 83 33 1.7 3.5 0.00 0.00 0.00 72 1013.7
20260901201343 83 18 1.7 3.5 0.00 0.00 0.00 73 1017.2
20260901200443 83 14 2.6 6.1 0.00 0.00 0.00 73 1017.1
20260901195543 84 9 2.6 7.8 0.00 0.00 0.00 71 1017.1
20260901194502 84 8 1.7 5.2 0.00 0.00 0.00 70 1013.8
20260901193752 84 18 1.7 6.1 0.00 0.00 0.00 73 1017.2
20260901193104 83 4 1.7 5.2 0.00 0.00 0.00 72 1013.9
20260901192843 83 18 1.7 6.1 0.00 0.00 0.00 72 1017.3
20260901191503 83 41 0.9 3.5 0.00 0.00 0.00 72 1013.9
20260901191043 83 27 1.7 4.3 0.00 0.00 0.00 74 1017.3
20260901185243 83 19 1.7 4.3 0.00 0.00 0.00 73 1017.4
20260901184502 83 222 1.7 7.0 0.00 0.00 0.00 74 1014.1
20260901184342 83 13 2.6 7.8 0.00 0.00 0.00 76 1017.4
20260901183442 83 21 1.7 4.3 0.00 0.00 0.00 74 1017.6
20260901183104 82 61 0.9 3.5 0.00 0.00 0.00 76 1014.3
20260901182543 82 7 1.7 4.3 0.00 0.00 0.00 76 1017.5
20260901181643 83 26 2.6 6.1 0.00 0.00 0.00 75 1017.6
20260901181503 82 72 2.6 7.8 0.00 0.00 0.00 74 1014.2
20260901180105 81 249 0.0 3.5 0.00 0.00 0.00 78 1014.2
20260901175842 81 17 0.9 4.3 0.00 0.00 0.00 78 1017.4
20260901174503 80 347 0.0 2.6 0.00 0.00 0.00 82 1014.3
20260901173143 80 13 1.7 7.8 0.00 0.00 0.00 80 1017.4
20260901173104 80 25 1.7 7.0 0.00 0.00 0.00 80 1014.2
20260901172243 81 13 1.7 6.1 0.00 0.00 0.00 80 1017.2
20260901171502 80 8 1.7 4.3 0.00 0.00 0.00 80 1014.0
20260901171343 81 31 0.9 4.3 0.00 0.00 0.00 80 1017.2
20260901170443 80 12 1.7 7.0 0.00 0.00 0.00 80 1017.2
20260901165542 80 24 1.7 7.0 0.00 0.00 0.00 82 1017.2
20260901164643 79 23 2.6 5.2 0.00 0.00 0.00 83 1017.1
20260901164505 78 141 1.7 5.2 0.00 0.00 0.00 83 1014.1
20260901163109 78 25 0.9 5.2 0.00 0.00 0.00 85 1014.1
20260901162843 78 11 2.6 6.1 0.00 0.00 0.00 85 1017.2
20260901161942 78 18 2.6 8.7 0.00 0.00 0.00 84 1017.3
20260901161502 78 347 2.6 9.6 0.00 0.00 0.00 84 1014.2
20260901161043 78 36 1.7 6.1 0.00 0.00 0.00 85 1017.3
20260901160143 77 51 1.7 5.2 0.00 0.00 0.00 86 1017.4
20260901160111 77 8 1.7 2.6 0.00 0.00 0.00 86 1014.3
20260901155243 77 34 1.7 6.1 0.00 0.01 0.00 87 1017.3
20260901154503 76 29 1.7 6.1 0.00 0.14 0.00 87 1014.5
20260901154342 77 24 1.7 6.1 0.00 0.06 0.00 87 1017.5
20260901153443 77 28 1.7 6.1 0.00 0.12 0.00 87 1017.5
20260901153103 76 82 1.7 5.2 0.00 0.14 0.00 86 1014.4
20260901152543 76 37 1.7 6.1 0.00 0.12 0.00 88 1017.4
20260901151643 76 16 1.7 4.3 0.00 0.13 0.00 89 1017.4
20260901151503 75 328 0.9 3.5 0.00 0.14 0.00 89 1014.5
20260901150743 75 50 0.9 4.3 0.00 0.14 0.00 89 1017.6
20260901145843 75 53 1.7 6.1 0.00 0.14 0.00 90 1017.6
20260901144943 74 18 1.7 8.7 0.00 0.14 0.00 90 1017.6
20260901144502 74 61 1.7 7.8 0.00 0.18 0.00 90 1014.7
20260901143142 74 37 2.6 7.0 0.00 0.17 0.00 91 1017.5
20260901143103 73 46 1.7 6.1 0.00 0.18 0.00 91 1014.7
20260901142242 73 34 1.7 8.7 0.00 0.17 0.00 92 1017.4
20260901141502 72 39 0.9 6.1 0.00 0.18 0.00 93 1014.6
20260901141342 73 69 1.7 6.1 0.00 0.17 0.00 93 1017.3
20260901140442 72 85 0.9 3.5 0.00 0.17 0.00 94 1017.5
20260901140108 71 78 0.9 7.0 0.00 0.18 0.00 95 1014.7
20260901135542 72 124 0.9 7.0 0.00 0.18 0.00 95 1017.6
20260901134642 72 106 0.9 4.3 0.00 0.18 0.00 95 1017.5
20260901134502 71 80 0.9 3.5 0.00 0.19 0.00 95 1014.7
20260901133742 71 95 0.0 1.7 0.00 0.18 0.00 96 1017.6
20260901133102 70 179 0.0 2.6 0.00 0.19 0.00 97 1014.9
20260901132842 71 78 0.9 3.5 0.00 0.19 0.00 97 1017.7
20260901131942 70 82 0.0 2.6 0.00 0.19 0.00 98 1017.8
20260901131504 69 71 0.0 1.7 0.00 0.19 0.00 98 1015.0
20260901131042 69 76 0.9 2.6 0.00 0.19 0.00 98 1017.9
20260901130143 69 74 0.0 1.7 0.00 0.19 0.00 99 1018.0
20260901130105 68 61 0.0 1.7 0.00 0.19 0.00 99 1015.2
20260901125242 69 87 0.0 2.6 0.00 0.19 0.00 99 1018.0
20260901124506 68 77 0.0 0.0 0.00 0.19 0.00 99 1015.4
20260901124342 68 0 0.0 0.0 0.00 0.19 0.00 99 1018.0
20260901123442 68 0 0.0 0.0 0.00 0.19 0.00 99 1018.2
20260901123102 67 77 0.0 0.0 0.00 0.19 0.00 99 1015.6
20260901122543 68 69 0.0 1.7 0.00 0.19 0.00 99 1018.3
20260901121642 68 88 0.0 2.6 0.00 0.19 0.00 99 1018.3
20260901121503 67 95 0.0 1.7 0.00 0.19 0.00 99 1015.6
20260901115842 68 74 0.0 0.9 0.00 0.19 0.00 99 1018.2
20260901114942 68 73 0.0 1.7 0.00 0.19 0.00 99 1018.1
20260901114503 67 74 0.0 1.7 0.00 0.19 0.00 99 1015.5
20260901114042 68 47 0.0 1.7 0.00 0.19 0.00 99 1018.1
20260901113142 68 59 0.0 1.7 0.00 0.19 0.00 99 1018.2
20260901113104 68 33 0.0 1.7 0.00 0.19 0.00 99 1015.6
20260901112242 68 89 0.0 1.7 0.00 0.19 0.00 99 1018.2
20260901111503 68 89 0.0 0.9 0.00 0.19 0.00 99 1015.5
20260901111342 68 90 0.0 0.9 0.00 0.19 0.00 99 1018.2
20260901110442 68 129 0.0 0.9 0.00 0.19 0.00 99 1018.0
20260901104503 67 130 0.0 2.6 0.00 0.19 0.00 99 1015.4
20260901103742 68 89 0.0 2.6 0.00 0.19 0.00 99 1018.1
20260901103106 67 95 0.0 0.9 0.00 0.19 0.00 99 1015.5
20260901101942 68 154 0.0 0.9 0.00 0.19 0.00 99 1018.0
20260901101506 67 78 0.0 0.0 0.00 0.19 0.00 99 1015.4
20260901101042 68 0 0.0 0.0 0.00 0.19 0.00 99 1017.8
20260901100142 68 0 0.0 0.0 0.00 0.19 0.00 99 1017.9
20260901100106 67 88 0.0 0.0 0.00 0.19 0.00 99 1015.4
20260901095242 68 0 0.0 0.0 0.00 0.19 0.00 99 1017.9
20260901094503 67 121 0.0 0.9 0.00 0.19 0.00 99 1015.5
20260901094342 67 201 0.0 0.9 0.00 0.19 0.00 99 1018.0
20260901093442 67 218 0.0 0.9 0.00 0.19 0.00 99 1018.1
20260901093104 67 134 0.0 0.0 0.00 0.19 0.00 99 1015.6